User: anonymous   Login
Location: Unspecified
(0.0000°N, 0.0000°E)
Time: 09:07:40
(UTC+00:00)
Language:

IGS RADAR-5 - Orbit

View from above orbital plane
View from above orbital plane
View from above satellite
View from above satellite

Ground track
Ground track

The orbit data is extracted from the following two-line orbital elements,

1 42072U 17015A   23269.84571773 0.00000000  00000-0  00000-0 0    06
2 42072  97.3722 339.2358 0003861  15.7014 344.2985 15.25981417    04
Epoch (UTC): 26 September 2023 20:17:50
Eccentricity: 0.0003861
inclination: 97.3722°
perigee height: 485 km
apogee height: 490 km
right ascension of ascending node: 339.2358°
argument of perigee: 15.7014°
revolutions per day: 15.25981417
mean anomaly at epoch: 344.2985°
orbit number at epoch: 0

The dashed part of the orbit path shows where the satellite is in the earth's shadow,  

DLR